TimeCDT,TemperatureF,Dew PointF,Humidity,Sea Level PressureIn,VisibilityMPH,Wind Direction,Wind SpeedMPH,Gust SpeedMPH,PrecipitationIn,Events,Conditions,WindDirDegrees,DateUTC
12:02 AM,68.0,66.9,96,29.95,2.5,SSW,6.9,-,0.06,Rain-Thunderstorm,Rain,200,2013-09-11 05:02:00
12:10 AM,68.0,66.0,93,29.95,3.0,South,5.8,-,0.13,Rain,Rain,180,2013-09-11 05:10:00
12:53 AM,68.0,66.9,96,29.95,10.0,South,4.6,-,0.13,Rain-Thunderstorm,Rain,180,2013-09-11 05:53:00
1:08 AM,68.0,66.9,96,29.96,10.0,South,4.6,-,0.00,Rain,Rain,180,2013-09-11 06:08:00
1:53 AM,68.0,66.9,96,29.95,10.0,Calm,Calm,-,0.00,Rain,Rain,0,2013-09-11 06:53:00
2:53 AM,68.0,66.9,96,29.94,9.0,Calm,Calm,-,0.00,Rain,Rain,0,2013-09-11 07:53:00
3:53 AM,68.0,66.9,96,29.95,6.0,South,4.6,-,0.00,Rain,Rain,190,2013-09-11 08:53:00
4:53 AM,68.0,66.9,96,29.96,9.0,SW,3.5,-,0.00,Rain,Rain,220,2013-09-11 09:53:00
5:53 AM,66.9,66.0,97,29.98,10.0,SSW,5.8,-,0.00,,Clear,210,2013-09-11 10:53:00
6:53 AM,66.9,66.0,97,29.99,10.0,SW,4.6,-,N/A,,Clear,220,2013-09-11 11:53:00
7:53 AM,69.1,66.0,90,30.01,10.0,SW,6.9,-,N/A,,Clear,220,2013-09-11 12:53:00
8:53 AM,70.0,66.0,87,30.00,10.0,SW,6.9,-,N/A,,Clear,230,2013-09-11 13:53:00
9:53 AM,71.1,66.0,84,29.99,10.0,West,11.5,-,N/A,,Clear,280,2013-09-11 14:53:00
10:53 AM,72.0,66.0,81,29.99,10.0,WNW,12.7,-,N/A,,Clear,300,2013-09-11 15:53:00
11:53 AM,73.9,66.0,76,29.99,10.0,WNW,9.2,-,N/A,,Clear,290,2013-09-11 16:53:00
12:53 PM,78.1,66.0,66,29.98,10.0,West,10.4,-,N/A,,Clear,270,2013-09-11 17:53:00
1:53 PM,78.1,66.0,66,29.98,10.0,WSW,9.2,-,N/A,,Clear,240,2013-09-11 18:53:00
2:53 PM,80.1,64.0,58,29.96,10.0,WSW,9.2,-,N/A,,Clear,250,2013-09-11 19:53:00
3:53 PM,82.0,64.0,54,29.95,10.0,SW,6.9,-,N/A,,Clear,230,2013-09-11 20:53:00
4:53 PM,80.1,64.0,58,29.94,10.0,SW,8.1,-,N/A,,Clear,220,2013-09-11 21:53:00
5:53 PM,78.1,63.0,60,29.94,10.0,SSW,6.9,-,N/A,,Scattered Clouds,210,2013-09-11 22:53:00
6:53 PM,73.9,64.0,71,29.93,10.0,SSW,5.8,-,N/A,,Mostly Cloudy,200,2013-09-11 23:53:00
7:53 PM,73.9,64.0,71,29.91,10.0,SW,6.9,-,N/A,,Mostly Cloudy,220,2013-09-12 00:53:00
8:53 PM,72.0,64.9,78,29.94,10.0,West,8.1,-,N/A,,Mostly Cloudy,280,2013-09-12 01:53:00
9:53 PM,70.0,59.0,68,29.96,10.0,NNW,8.1,-,N/A,,Scattered Clouds,330,2013-09-12 02:53:00
10:53 PM,64.9,60.1,84,29.98,10.0,NW,4.6,-,N/A,,Clear,310,2013-09-12 03:53:00
11:53 PM,61.0,59.0,93,29.98,10.0,WNW,4.6,-,N/A,,Clear,300,2013-09-12 04:53:00